Location: Newark
(51.2625°N, 13.3939°E)
Time: 16:43:10
(UTC+00:00)

Explorer 7 - Pass Details

Date: 19 November 2019
Orbit: 485 x 680 km, 50.3° (Epoch: 06 December)

Event Time Altitude Azimuth Distance (km) Brightness Sun altitude
Rises 02:25:58 0° 271° (W) 2,852 - -37.5°
Reaches altitude 10° 02:28:19 10° 270° (W) 1,914 - -37.2°
Maximum altitude 02:32:41 78° 185° (S) 577 - -36.5°
Exits shadow 02:36:39 11° 99° (E) 1,748 10.0 -35.9°
Drops below altitude 10° 02:36:45 10° 99° (E) 1,792 10.1 -35.9°
Sets 02:38:54 0° 98° (E) 2,652 11.2 -35.6°
